Overview Statistics Trail Chart Weather Telemetry Raw packets
 

This is the latest recevied weather packets stored in our database for station/object SV9TNF-52. If no packets are shown the sender has not sent any weather packets the latest 10 day(s).

<< 51 52 53 54 55 56 57 >>
Time Temp. Humidity Pressure Rain* Wind** Luminosity Snow
1788316413 21.67° C 74% 1019.3 hPa 0 mm 8.05 m/s, 272° - -
1788316113 21.67° C 74% 1019.3 hPa 0 mm 4.92 m/s, 211° - -
1788315813 21.67° C 75% 1019.6 hPa 0 mm 8.05 m/s, 224° - -
1788315513 21.67° C 75% 1019.6 hPa 0 mm 9.83 m/s, 255° - -
1788315213 21.67° C 75% 1019.6 hPa 0 mm 8.05 m/s, 233° - -
1788314913 21.67° C 75% 1019.6 hPa 0 mm 6.26 m/s, 136° - -
1788314613 21.67° C 76% 1019.6 hPa 0 mm 6.26 m/s, 201° - -
1788314312 21.67° C 76% 1019.6 hPa 0 mm 6.71 m/s, 213° - -
1788314012 21.67° C 76% 1019.6 hPa 0 mm 6.26 m/s, 257° - -
1788313713 22.22° C 76% 1019.6 hPa 0 mm 7.15 m/s, 165° - -
1788313412 22.22° C 76% 1019.6 hPa 0 mm 5.81 m/s, 226° - -
1788313112 22.22° C 77% 1019.6 hPa 0 mm 5.81 m/s, 193° - -
1788312812 22.22° C 77% 1019.6 hPa 0 mm 4.92 m/s, 212° - -
1788312512 22.22° C 77% 1019.6 hPa 0 mm 5.36 m/s, 257° - -
1788312212 22.22° C 77% 1019.6 hPa 0 mm 5.81 m/s, 192° - -
1788311912 22.22° C 77% 1019.6 hPa 0 mm 6.71 m/s, 200° - -
1788311612 22.22° C 77% 1019.6 hPa 0 mm 8.05 m/s, 225° - -
1788311312 22.22° C 77% 1020 hPa 0 mm 7.6 m/s, 197° - -
1788311011 22.22° C 77% 1020 hPa 0 mm 7.6 m/s, 237° - -
1788310711 22.22° C 77% 1020 hPa 0 mm 6.71 m/s, 193° - -
1788310411 22.22° C 77% 1020 hPa 0 mm 5.36 m/s, 275° - -
1788310111 22.22° C 77% 1020 hPa 0 mm 6.71 m/s, 197° - -
1788309811 22.78° C 77% 1020 hPa 0 mm 6.26 m/s, 236° - -
1788309511 22.78° C 77% 1020 hPa 0 mm 6.26 m/s, 240° - -
1788309211 22.22° C 78% 1020 hPa 0 mm 5.81 m/s, 199° - -

* Rain latest hour (hover to see other rain measurements)
** Current wind speed in m/s (hover to see current wind gust speed)